Location: Unspecified
(43.4680°N, 87.1740°E)
Time: 17:41:10
(UTC+00:00)

Cosmos 1656 - Pass Details

Date: 17 January 2020
Orbit: 797 x 850 km, 71.1° (Epoch: 19 February)

Event Time Altitude Azimuth Distance (km) Brightness Sun altitude
Exits shadow 23:51:12 36° 268° (W) 1,247 4.1 -19.4°
Maximum altitude 23:52:28 42° 302° (WNW) 1,136 3.9 -19.2°
Drops below altitude 10° 23:57:39 10° 13° (NNE) 2,396 6.1 -18.3°
Sets 00:00:14 0° 20° (NNE) 3,338 6.9 -17.8°
